owner,sensor,date,latitude,longitude,vertical_datum,mass_concentration_of_oxygen_in_sea_water,qcFlag 
SCCF RECON,ioos:station:SCCF:13:1,2013-01-01T00:00:00Z,26.5255,-82.0032,2.34,7.77,1111122 
SCCF RECON,ioos:station:SCCF:13:1,2013-01-01T01:00:00Z,26.5255,-82.0032,2.33,7.66,1111122 
SCCF RECON,ioos:station:SCCF:13:1,2013-01-01T02:00:00Z,26.5255,-82.0032,2.3,7.51,1111122 
SCCF RECON,ioos:station:SCCF:13:1,2013-01-01T03:00:00Z,26.5255,-82.0032,2.319,7.42,1111122 
SCCF RECON,ioos:station:SCCF:13:1,2013-01-01T04:00:00Z,26.5255,-82.0032,2.39,7.45,1111122 
SCCF RECON,ioos:station:SCCF:13:1,2013-01-01T05:00:00Z,26.5255,-82.0032,2.48,7.33,1111122 
SCCF RECON,ioos:station:SCCF:13:1,2013-01-01T06:00:00Z,26.5255,-82.0032,2.55,7.57,1111122 
SCCF RECON,ioos:station:SCCF:13:1,2013-01-01T07:00:00Z,26.5255,-82.0032,2.58,7.59,1111122 
SCCF RECON,ioos:station:SCCF:13:1,2013-01-01T08:00:00Z,26.5255,-82.0032,2.61,7.33,1111122 
SCCF RECON,ioos:station:SCCF:13:1,2013-01-01T09:00:00Z,26.5255,-82.0032,2.57,7.11,1111122 
SCCF RECON,ioos:station:SCCF:13:1,2013-01-01T10:00:00Z,26.5255,-82.0032,2.49,6.97,1111122 
SCCF RECON,ioos:station:SCCF:13:1,2013-01-01T11:00:00Z,26.5255,-82.0032,2.388,6.91,1111122 
SCCF RECON,ioos:station:SCCF:13:1,2013-01-01T12:00:00Z,26.5255,-82.0032,2.298,7.26,1111122 
SCCF RECON,ioos:station:SCCF:13:1,2013-01-01T13:00:00Z,26.5255,-82.0032,2.233,7.22,1111122 
SCCF RECON,ioos:station:SCCF:13:1,2013-01-01T14:00:00Z,26.5255,-82.0032,2.17,7.33,1111122 
SCCF RECON,ioos:station:SCCF:13:1,2013-01-01T15:00:00Z,26.5255,-82.0032,2.13,7.48,1111122 
SCCF RECON,ioos:station:SCCF:13:1,2013-01-01T16:00:00Z,26.5255,-82.0032,2.18,7.54,1111122 
SCCF RECON,ioos:station:SCCF:13:1,2013-01-01T17:00:00Z,26.5255,-82.0032,2.315,7.5,1111122 
SCCF RECON,ioos:station:SCCF:13:1,2013-01-01T18:00:00Z,26.5255,-82.0032,2.4,7.55,1111122 
SCCF RECON,ioos:station:SCCF:13:1,2013-01-01T19:00:00Z,26.5255,-82.0032,2.447,7.38,1111122 
SCCF RECON,ioos:station:SCCF:13:1,2013-01-01T20:00:00Z,26.5255,-82.0032,2.51,7.73,1111122 
SCCF RECON,ioos:station:SCCF:13:1,2013-01-01T21:00:00Z,26.5255,-82.0032,2.55,8.12,1111122 
SCCF RECON,ioos:station:SCCF:13:1,2013-01-01T22:00:00Z,26.5255,-82.0032,2.547,8.01,1111122 
SCCF RECON,ioos:station:SCCF:13:1,2013-01-01T23:00:00Z,26.5255,-82.0032,2.492,7.85,1111122 
SCCF RECON,ioos:station:SCCF:13:1,2013-01-02T00:00:00Z,26.5255,-82.0032,2.42,7.78,1111122 
SCCF RECON,ioos:station:SCCF:13:1,2013-01-02T01:00:00Z,26.5255,-82.0032,2.37,7.53,1111122 
SCCF RECON,ioos:station:SCCF:13:1,2013-01-02T02:00:00Z,26.5255,-82.0032,2.33,7.44,1111122 
SCCF RECON,ioos:station:SCCF:13:1,2013-01-02T03:00:00Z,26.5255,-82.0032,2.3,7.47,1111122 
SCCF RECON,ioos:station:SCCF:13:1,2013-01-02T04:00:00Z,26.5255,-82.0032,2.35,7.6,1111122 
SCCF RECON,ioos:station:SCCF:13:1,2013-01-02T05:00:00Z,26.5255,-82.0032,2.44,7.37,1111122 
SCCF RECON,ioos:station:SCCF:13:1,2013-01-02T06:00:00Z,26.5255,-82.0032,2.51,7.13,1111122 
SCCF RECON,ioos:station:SCCF:13:1,2013-01-02T07:00:00Z,26.5255,-82.0032,2.54,7.27,1111122 
SCCF RECON,ioos:station:SCCF:13:1,2013-01-02T08:00:00Z,26.5255,-82.0032,2.56,7.29,1111122 
SCCF RECON,ioos:station:SCCF:13:1,2013-01-02T09:00:00Z,26.5255,-82.0032,2.57,7.35,1111122 
SCCF RECON,ioos:station:SCCF:13:1,2013-01-02T10:00:00Z,26.5255,-82.0032,2.53,7.15,1111122 
SCCF RECON,ioos:station:SCCF:13:1,2013-01-02T11:00:00Z,26.5255,-82.0032,2.44,7.06,1111122 
SCCF RECON,ioos:station:SCCF:13:1,2013-01-02T12:00:00Z,26.5255,-82.0032,2.35,6.99,1111122 
SCCF RECON,ioos:station:SCCF:13:1,2013-01-02T13:00:00Z,26.5255,-82.0032,2.28,7.09,1111122 
SCCF RECON,ioos:station:SCCF:13:1,2013-01-02T14:00:00Z,26.5255,-82.0032,2.21,7.16,1111122 
SCCF RECON,ioos:station:SCCF:13:1,2013-01-02T15:00:00Z,26.5255,-82.0032,2.15,7.24,1111122 
SCCF RECON,ioos:station:SCCF:13:1,2013-01-02T16:00:00Z,26.5255,-82.0032,2.13,7.41,1111122 
SCCF RECON,ioos:station:SCCF:13:1,2013-01-02T17:00:00Z,26.5255,-82.0032,2.231,7.54,1111122 
SCCF RECON,ioos:station:SCCF:13:1,2013-01-02T18:00:00Z,26.5255,-82.0032,2.349,7.32,1111122 
SCCF RECON,ioos:station:SCCF:13:1,2013-01-02T19:00:00Z,26.5255,-82.0032,2.405,7.46,1111122 
SCCF RECON,ioos:station:SCCF:13:1,2013-01-02T20:00:00Z,26.5255,-82.0032,2.452,7.22,1111122 
SCCF RECON,ioos:station:SCCF:13:1,2013-01-02T21:00:00Z,26.5255,-82.0032,2.511,7.4,1111122 
SCCF RECON,ioos:station:SCCF:13:1,2013-01-02T22:00:00Z,26.5255,-82.0032,2.55,7.84,1111122 
SCCF RECON,ioos:station:SCCF:13:1,2013-01-02T23:00:00Z,26.5255,-82.0032,2.52,7.71,1111122 
SCCF RECON,ioos:station:SCCF:13:1,2013-01-03T00:00:00Z,26.5255,-82.0032,2.45,7.65,1111122 
SCCF RECON,ioos:station:SCCF:13:1,2013-01-03T01:00:00Z,26.5255,-82.0032,2.39,7.43,1111122 
SCCF RECON,ioos:station:SCCF:13:1,2013-01-03T02:00:00Z,26.5255,-82.0032,2.33,7.27,1111122 
SCCF RECON,ioos:station:SCCF:13:1,2013-01-03T03:00:00Z,26.5255,-82.0032,2.29,7.26,1111122 
SCCF RECON,ioos:station:SCCF:13:1,2013-01-03T04:00:00Z,26.5255,-82.0032,2.27,7.4,1111122 
SCCF RECON,ioos:station:SCCF:13:1,2013-01-03T05:00:00Z,26.5255,-82.0032,2.33,7.49,1111122 
SCCF RECON,ioos:station:SCCF:13:1,2013-01-03T06:00:00Z,26.5255,-82.0032,2.41,7.25,1111122 
SCCF RECON,ioos:station:SCCF:13:1,2013-01-03T07:00:00Z,26.5255,-82.0032,2.45,6.79,1111122 
SCCF RECON,ioos:station:SCCF:13:1,2013-01-03T08:00:00Z,26.5255,-82.0032,2.47,6.89,1111122 
SCCF RECON,ioos:station:SCCF:13:1,2013-01-03T09:00:00Z,26.5255,-82.0032,2.49,6.89,1111122 
SCCF RECON,ioos:station:SCCF:13:1,2013-01-03T10:00:00Z,26.5255,-82.0032,2.49,6.98,1111122 
SCCF RECON,ioos:station:SCCF:13:1,2013-01-03T11:00:00Z,26.5255,-82.0032,2.456,7.04,1111122 
SCCF RECON,ioos:station:SCCF:13:1,2013-01-03T12:00:00Z,26.5255,-82.0032,2.38,6.92,1111122 
SCCF RECON,ioos:station:SCCF:13:1,2013-01-03T13:00:00Z,26.5255,-82.0032,2.3,6.78,1111122 
SCCF RECON,ioos:station:SCCF:13:1,2013-01-03T14:00:00Z,26.5255,-82.0032,2.24,7.03,1111122 
SCCF RECON,ioos:station:SCCF:13:1,2013-01-03T15:00:00Z,26.5255,-82.0032,2.18,7.06,1111122 
SCCF RECON,ioos:station:SCCF:13:1,2013-01-03T16:00:00Z,26.5255,-82.0032,2.129,7.31,1111122 
SCCF RECON,ioos:station:SCCF:13:1,2013-01-03T17:00:00Z,26.5255,-82.0032,2.16,7.49,1111122 
SCCF RECON,ioos:station:SCCF:13:1,2013-01-03T18:00:00Z,26.5255,-82.0032,2.266,7.56,1111122 
SCCF RECON,ioos:station:SCCF:13:1,2013-01-03T19:00:00Z,26.5255,-82.0032,2.35,7.41,1111122 
SCCF RECON,ioos:station:SCCF:13:1,2013-01-03T20:00:00Z,26.5255,-82.0032,2.42,7.1,1111122 
SCCF RECON,ioos:station:SCCF:13:1,2013-01-03T21:00:00Z,26.5255,-82.0032,2.494,7.0,1111122 
SCCF RECON,ioos:station:SCCF:13:1,2013-01-03T22:00:00Z,26.5255,-82.0032,2.54,7.76,1111122 
SCCF RECON,ioos:station:SCCF:13:1,2013-01-03T23:00:00Z,26.5255,-82.0032,2.55,7.74,1111122 
SCCF RECON,ioos:station:SCCF:13:1,2013-01-04T00:00:00Z,26.5255,-82.0032,2.508,7.57,1111122 
SCCF RECON,ioos:station:SCCF:13:1,2013-01-04T01:00:00Z,26.5255,-82.0032,2.44,7.5,1111122 
SCCF RECON,ioos:station:SCCF:13:1,2013-01-04T02:00:00Z,26.5255,-82.0032,2.373,7.24,1111122 
SCCF RECON,ioos:station:SCCF:13:1,2013-01-04T03:00:00Z,26.5255,-82.0032,2.32,7.03,1111122 
SCCF RECON,ioos:station:SCCF:13:1,2013-01-04T04:00:00Z,26.5255,-82.0032,2.28,7.1,1111122 
SCCF RECON,ioos:station:SCCF:13:1,2013-01-04T05:00:00Z,26.5255,-82.0032,2.26,7.12,1111122 
SCCF RECON,ioos:station:SCCF:13:1,2013-01-04T06:00:00Z,26.5255,-82.0032,2.264,7.19,1111122 
SCCF RECON,ioos:station:SCCF:13:1,2013-01-04T07:00:00Z,26.5255,-82.0032,2.33,7.3,1111122 
SCCF RECON,ioos:station:SCCF:13:1,2013-01-04T08:00:00Z,26.5255,-82.0032,2.4,6.88,1111122 
SCCF RECON,ioos:station:SCCF:13:1,2013-01-04T09:00:00Z,26.5255,-82.0032,2.43,6.55,1111122 
SCCF RECON,ioos:station:SCCF:13:1,2013-01-04T10:00:00Z,26.5255,-82.0032,2.46,6.6,1111122 
SCCF RECON,ioos:station:SCCF:13:1,2013-01-04T11:00:00Z,26.5255,-82.0032,2.47,6.67,1111122 
SCCF RECON,ioos:station:SCCF:13:1,2013-01-04T12:00:00Z,26.5255,-82.0032,2.436,6.62,1111122 
SCCF RECON,ioos:station:SCCF:13:1,2013-01-04T13:00:00Z,26.5255,-82.0032,2.37,6.63,1111122 
SCCF RECON,ioos:station:SCCF:13:1,2013-01-04T14:00:00Z,26.5255,-82.0032,2.309,6.61,1111122 
SCCF RECON,ioos:station:SCCF:13:1,2013-01-04T15:00:00Z,26.5255,-82.0032,2.25,6.97,1111122 
SCCF RECON,ioos:station:SCCF:13:1,2013-01-04T16:00:00Z,26.5255,-82.0032,2.193,7.14,1111122 
SCCF RECON,ioos:station:SCCF:13:1,2013-01-04T17:00:00Z,26.5255,-82.0032,2.17,7.45,1111122 
SCCF RECON,ioos:station:SCCF:13:1,2013-01-04T18:00:00Z,26.5255,-82.0032,2.22,7.61,1111122 
SCCF RECON,ioos:station:SCCF:13:1,2013-01-04T19:00:00Z,26.5255,-82.0032,2.33,7.53,1111122 
SCCF RECON,ioos:station:SCCF:13:1,2013-01-04T20:00:00Z,26.5255,-82.0032,2.42,6.97,1111122 
SCCF RECON,ioos:station:SCCF:13:1,2013-01-04T21:00:00Z,26.5255,-82.0032,2.472,6.89,1111122 
SCCF RECON,ioos:station:SCCF:13:1,2013-01-04T22:00:00Z,26.5255,-82.0032,2.52,7.26,1111122 
SCCF RECON,ioos:station:SCCF:13:1,2013-01-04T23:00:00Z,26.5255,-82.0032,2.551,7.44,1111122 
SCCF RECON,ioos:station:SCCF:13:1,2013-01-05T00:00:00Z,26.5255,-82.0032,2.556,7.57,1111122 
SCCF RECON,ioos:station:SCCF:13:1,2013-01-05T01:00:00Z,26.5255,-82.0032,2.493,7.52,1111122 
SCCF RECON,ioos:station:SCCF:13:1,2013-01-05T02:00:00Z,26.5255,-82.0032,2.4,7.28,1111122 
SCCF RECON,ioos:station:SCCF:13:1,2013-01-05T03:00:00Z,26.5255,-82.0032,2.31,6.95,1111122 
SCCF RECON,ioos:station:SCCF:13:1,2013-01-05T04:00:00Z,26.5255,-82.0032,2.25,7.09,1111122 
SCCF RECON,ioos:station:SCCF:13:1,2013-01-05T05:00:00Z,26.5255,-82.0032,2.198,7.23,1111122 
SCCF RECON,ioos:station:SCCF:13:1,2013-01-05T06:00:00Z,26.5255,-82.0032,2.16,7.35,1111122 
SCCF RECON,ioos:station:SCCF:13:1,2013-01-05T07:00:00Z,26.5255,-82.0032,2.14,7.38,1111122 
SCCF RECON,ioos:station:SCCF:13:1,2013-01-05T08:00:00Z,26.5255,-82.0032,2.2,7.34,1111122 
SCCF RECON,ioos:station:SCCF:13:1,2013-01-05T09:00:00Z,26.5255,-82.0032,2.25,7.34,1111122 
SCCF RECON,ioos:station:SCCF:13:1,2013-01-05T10:00:00Z,26.5255,-82.0032,2.27,7.17,1111122 
SCCF RECON,ioos:station:SCCF:13:1,2013-01-05T11:00:00Z,26.5255,-82.0032,2.28,6.38,1111122 
SCCF RECON,ioos:station:SCCF:13:1,2013-01-05T12:00:00Z,26.5255,-82.0032,2.296,6.29,1111122 
SCCF RECON,ioos:station:SCCF:13:1,2013-01-05T13:00:00Z,26.5255,-82.0032,2.3,6.45,1111122 
SCCF RECON,ioos:station:SCCF:13:1,2013-01-05T14:00:00Z,26.5255,-82.0032,2.28,6.29,1111122 
SCCF RECON,ioos:station:SCCF:13:1,2013-01-05T15:00:00Z,26.5255,-82.0032,2.26,6.31,1111122 
SCCF RECON,ioos:station:SCCF:13:1,2013-01-05T16:00:00Z,26.5255,-82.0032,1.0,-9999.0,1111122 
SCCF RECON,ioos:station:SCCF:13:1,2013-01-05T17:00:00Z,26.5255,-82.0032,2.171,6.77,1111122 
SCCF RECON,ioos:station:SCCF:13:1,2013-01-05T18:00:00Z,26.5255,-82.0032,2.169,7.26,1111122 
SCCF RECON,ioos:station:SCCF:13:1,2013-01-05T19:00:00Z,26.5255,-82.0032,2.236,7.13,1111122 
SCCF RECON,ioos:station:SCCF:13:1,2013-01-05T20:00:00Z,26.5255,-82.0032,2.318,6.87,1111122 
SCCF RECON,ioos:station:SCCF:13:1,2013-01-05T21:00:00Z,26.5255,-82.0032,2.401,6.98,1111122 
SCCF RECON,ioos:station:SCCF:13:1,2013-01-05T22:00:00Z,26.5255,-82.0032,2.479,7.07,1111122 
SCCF RECON,ioos:station:SCCF:13:1,2013-01-05T23:00:00Z,26.5255,-82.0032,2.547,7.68,1111122 
SCCF RECON,ioos:station:SCCF:13:1,2013-01-06T00:00:00Z,26.5255,-82.0032,2.58,7.68,1111122 
SCCF RECON,ioos:station:SCCF:13:1,2013-01-06T01:00:00Z,26.5255,-82.0032,2.56,7.61,1111122 
SCCF RECON,ioos:station:SCCF:13:1,2013-01-06T02:00:00Z,26.5255,-82.0032,2.491,7.43,1111122 
SCCF RECON,ioos:station:SCCF:13:1,2013-01-06T03:00:00Z,26.5255,-82.0032,2.41,7.41,1111122 
SCCF RECON,ioos:station:SCCF:13:1,2013-01-06T04:00:00Z,26.5255,-82.0032,2.33,7.17,1111122 
SCCF RECON,ioos:station:SCCF:13:1,2013-01-06T05:00:00Z,26.5255,-82.0032,2.26,7.17,1111122 
SCCF RECON,ioos:station:SCCF:13:1,2013-01-06T06:00:00Z,26.5255,-82.0032,2.19,7.16,1111122 
SCCF RECON,ioos:station:SCCF:13:1,2013-01-06T07:00:00Z,26.5255,-82.0032,2.12,7.16,1111122 
SCCF RECON,ioos:station:SCCF:13:1,2013-01-06T08:00:00Z,26.5255,-82.0032,2.09,7.12,1111122 
SCCF RECON,ioos:station:SCCF:13:1,2013-01-06T09:00:00Z,26.5255,-82.0032,2.159,7.09,1111122 
SCCF RECON,ioos:station:SCCF:13:1,2013-01-06T10:00:00Z,26.5255,-82.0032,2.232,7.09,1111122 
SCCF RECON,ioos:station:SCCF:13:1,2013-01-06T11:00:00Z,26.5255,-82.0032,2.28,6.69,1111122 
SCCF RECON,ioos:station:SCCF:13:1,2013-01-06T12:00:00Z,26.5255,-82.0032,2.31,6.47,1111122 
SCCF RECON,ioos:station:SCCF:13:1,2013-01-06T13:00:00Z,26.5255,-82.0032,2.36,6.6,1111122 
SCCF RECON,ioos:station:SCCF:13:1,2013-01-06T14:00:00Z,26.5255,-82.0032,2.38,6.68,1111122 
SCCF RECON,ioos:station:SCCF:13:1,2013-01-06T15:00:00Z,26.5255,-82.0032,2.39,6.72,1111122 
SCCF RECON,ioos:station:SCCF:13:1,2013-01-06T16:00:00Z,26.5255,-82.0032,2.37,6.79,1111122 
SCCF RECON,ioos:station:SCCF:13:1,2013-01-06T17:00:00Z,26.5255,-82.0032,2.321,6.73,1111122 
SCCF RECON,ioos:station:SCCF:13:1,2013-01-06T18:00:00Z,26.5255,-82.0032,2.27,6.88,1111122 
SCCF RECON,ioos:station:SCCF:13:1,2013-01-06T19:00:00Z,26.5255,-82.0032,2.27,7.01,1111122 
SCCF RECON,ioos:station:SCCF:13:1,2013-01-06T20:00:00Z,26.5255,-82.0032,2.33,6.77,1111122 
SCCF RECON,ioos:station:SCCF:13:1,2013-01-06T21:00:00Z,26.5255,-82.0032,2.402,7.29,1111122 
SCCF RECON,ioos:station:SCCF:13:1,2013-01-06T22:00:00Z,26.5255,-82.0032,2.49,7.29,1111122 
SCCF RECON,ioos:station:SCCF:13:1,2013-01-06T23:00:00Z,26.5255,-82.0032,2.55,7.24,1111122 
SCCF RECON,ioos:station:SCCF:13:1,2013-01-07T00:00:00Z,26.5255,-82.0032,2.59,7.11,1111122 
SCCF RECON,ioos:station:SCCF:13:1,2013-01-07T01:00:00Z,26.5255,-82.0032,2.61,7.6,1111122 
SCCF RECON,ioos:station:SCCF:13:1,2013-01-07T02:00:00Z,26.5255,-82.0032,2.576,7.36,1111122 
SCCF RECON,ioos:station:SCCF:13:1,2013-01-07T03:00:00Z,26.5255,-82.0032,2.51,7.22,1111122 
SCCF RECON,ioos:station:SCCF:13:1,2013-01-07T04:00:00Z,26.5255,-82.0032,2.42,7.08,1111122 
SCCF RECON,ioos:station:SCCF:13:1,2013-01-07T05:00:00Z,26.5255,-82.0032,2.34,6.84,1111122 
SCCF RECON,ioos:station:SCCF:13:1,2013-01-07T06:00:00Z,26.5255,-82.0032,2.25,6.82,1111122 
SCCF RECON,ioos:station:SCCF:13:1,2013-01-07T07:00:00Z,26.5255,-82.0032,2.16,6.84,1111122 
SCCF RECON,ioos:station:SCCF:13:1,2013-01-07T08:00:00Z,26.5255,-82.0032,2.071,6.88,1111122 
SCCF RECON,ioos:station:SCCF:13:1,2013-01-07T09:00:00Z,26.5255,-82.0032,2.03,6.86,1111122 
SCCF RECON,ioos:station:SCCF:13:1,2013-01-07T10:00:00Z,26.5255,-82.0032,2.062,6.89,1111122 
SCCF RECON,ioos:station:SCCF:13:1,2013-01-07T11:00:00Z,26.5255,-82.0032,2.16,6.88,1111122 
SCCF RECON,ioos:station:SCCF:13:1,2013-01-07T12:00:00Z,26.5255,-82.0032,2.25,6.85,1111122 
SCCF RECON,ioos:station:SCCF:13:1,2013-01-07T13:00:00Z,26.5255,-82.0032,2.31,6.1,1111122 
SCCF RECON,ioos:station:SCCF:13:1,2013-01-07T14:00:00Z,26.5255,-82.0032,2.356,6.41,1111122 
SCCF RECON,ioos:station:SCCF:13:1,2013-01-07T15:00:00Z,26.5255,-82.0032,2.38,6.42,1111122 
SCCF RECON,ioos:station:SCCF:13:1,2013-01-07T16:00:00Z,26.5255,-82.0032,2.389,6.39,1111122 
SCCF RECON,ioos:station:SCCF:13:1,2013-01-07T17:00:00Z,26.5255,-82.0032,2.366,6.41,1111122 
SCCF RECON,ioos:station:SCCF:13:1,2013-01-07T18:00:00Z,26.5255,-82.0032,2.342,6.29,1111122 
SCCF RECON,ioos:station:SCCF:13:1,2013-01-07T19:00:00Z,26.5255,-82.0032,1.0,-9999.0,1111122 
SCCF RECON,ioos:station:SCCF:13:1,2013-01-07T20:00:00Z,26.5255,-82.0032,1.0,-9999.0,1111122 
SCCF RECON,ioos:station:SCCF:13:1,2013-01-07T21:00:00Z,26.5255,-82.0032,1.0,-9999.0,1111122 
SCCF RECON,ioos:station:SCCF:13:1,2013-01-07T22:00:00Z,26.5255,-82.0032,1.0,-9999.0,1111122 
SCCF RECON,ioos:station:SCCF:13:1,2013-01-07T23:00:00Z,26.5255,-82.0032,1.0,-9999.0,1111122 
SCCF RECON,ioos:station:SCCF:13:1,2013-01-08T00:00:00Z,26.5255,-82.0032,1.0,-9999.0,1111122 
SCCF RECON,ioos:station:SCCF:13:1,2013-01-08T01:00:00Z,26.5255,-82.0032,1.0,-9999.0,1111122 
SCCF RECON,ioos:station:SCCF:13:1,2013-01-08T02:00:00Z,26.5255,-82.0032,1.0,-9999.0,1111122 
SCCF RECON,ioos:station:SCCF:13:1,2013-01-08T03:00:00Z,26.5255,-82.0032,1.0,-9999.0,1111122 
SCCF RECON,ioos:station:SCCF:13:1,2013-01-08T04:00:00Z,26.5255,-82.0032,1.0,-9999.0,1111122 
SCCF RECON,ioos:station:SCCF:13:1,2013-01-08T05:00:00Z,26.5255,-82.0032,1.0,-9999.0,1111122 
SCCF RECON,ioos:station:SCCF:13:1,2013-01-08T06:00:00Z,26.5255,-82.0032,1.0,-9999.0,1111122 
SCCF RECON,ioos:station:SCCF:13:1,2013-01-08T07:00:00Z,26.5255,-82.0032,1.0,-9999.0,1111122 
SCCF RECON,ioos:station:SCCF:13:1,2013-01-08T08:00:00Z,26.5255,-82.0032,1.0,-9999.0,1111122 
SCCF RECON,ioos:station:SCCF:13:1,2013-01-08T09:00:00Z,26.5255,-82.0032,1.0,-9999.0,1111122 
SCCF RECON,ioos:station:SCCF:13:1,2013-01-08T10:00:00Z,26.5255,-82.0032,1.0,-9999.0,1111122 
SCCF RECON,ioos:station:SCCF:13:1,2013-01-08T11:00:00Z,26.5255,-82.0032,1.0,-9999.0,1111122 
SCCF RECON,ioos:station:SCCF:13:1,2013-01-08T12:00:00Z,26.5255,-82.0032,1.0,-9999.0,1111122 
SCCF RECON,ioos:station:SCCF:13:1,2013-01-08T13:00:00Z,26.5255,-82.0032,1.0,-9999.0,1111122 
SCCF RECON,ioos:station:SCCF:13:1,2013-01-08T14:00:00Z,26.5255,-82.0032,1.0,-9999.0,1111122 
SCCF RECON,ioos:station:SCCF:13:1,2013-01-08T15:00:00Z,26.5255,-82.0032,1.0,-9999.0,1111122 
SCCF RECON,ioos:station:SCCF:13:1,2013-01-08T16:00:00Z,26.5255,-82.0032,1.0,-9999.0,1111122 
SCCF RECON,ioos:station:SCCF:13:1,2013-01-08T17:00:00Z,26.5255,-82.0032,1.0,-9999.0,1111122 
SCCF RECON,ioos:station:SCCF:13:1,2013-01-08T18:00:00Z,26.5255,-82.0032,1.0,-9999.0,1111122 
SCCF RECON,ioos:station:SCCF:13:1,2013-01-08T19:00:00Z,26.5255,-82.0032,1.0,-9999.0,1111122 
SCCF RECON,ioos:station:SCCF:13:1,2013-01-08T20:00:00Z,26.5255,-82.0032,1.0,-9999.0,1111122 
SCCF RECON,ioos:station:SCCF:13:1,2013-01-08T21:00:00Z,26.5255,-82.0032,1.0,-9999.0,1111122 
SCCF RECON,ioos:station:SCCF:13:1,2013-01-08T22:00:00Z,26.5255,-82.0032,1.0,-9999.0,1111122 
SCCF RECON,ioos:station:SCCF:13:1,2013-01-08T23:00:00Z,26.5255,-82.0032,1.0,-9999.0,1111122 
SCCF RECON,ioos:station:SCCF:13:1,2013-01-09T00:00:00Z,26.5255,-82.0032,1.0,-9999.0,1111122 
SCCF RECON,ioos:station:SCCF:13:1,2013-01-09T01:00:00Z,26.5255,-82.0032,1.0,-9999.0,1111122 
SCCF RECON,ioos:station:SCCF:13:1,2013-01-09T02:00:00Z,26.5255,-82.0032,1.0,-9999.0,1111122 
SCCF RECON,ioos:station:SCCF:13:1,2013-01-09T03:00:00Z,26.5255,-82.0032,1.0,-9999.0,1111122 
SCCF RECON,ioos:station:SCCF:13:1,2013-01-09T04:00:00Z,26.5255,-82.0032,1.0,-9999.0,1111122 
SCCF RECON,ioos:station:SCCF:13:1,2013-01-09T05:00:00Z,26.5255,-82.0032,1.0,-9999.0,1111122 
SCCF RECON,ioos:station:SCCF:13:1,2013-01-09T06:00:00Z,26.5255,-82.0032,1.0,-9999.0,1111122 
SCCF RECON,ioos:station:SCCF:13:1,2013-01-09T07:00:00Z,26.5255,-82.0032,1.0,-9999.0,1111122 
SCCF RECON,ioos:station:SCCF:13:1,2013-01-09T08:00:00Z,26.5255,-82.0032,1.0,-9999.0,1111122 
SCCF RECON,ioos:station:SCCF:13:1,2013-01-09T09:00:00Z,26.5255,-82.0032,1.0,-9999.0,1111122 
SCCF RECON,ioos:station:SCCF:13:1,2013-01-09T10:00:00Z,26.5255,-82.0032,1.0,-9999.0,1111122 
SCCF RECON,ioos:station:SCCF:13:1,2013-01-09T11:00:00Z,26.5255,-82.0032,1.0,-9999.0,1111122 
SCCF RECON,ioos:station:SCCF:13:1,2013-01-09T12:00:00Z,26.5255,-82.0032,1.0,-9999.0,1111122 
SCCF RECON,ioos:station:SCCF:13:1,2013-01-09T13:00:00Z,26.5255,-82.0032,1.0,-9999.0,1111122 
SCCF RECON,ioos:station:SCCF:13:1,2013-01-09T14:00:00Z,26.5255,-82.0032,1.0,-9999.0,1111122 
SCCF RECON,ioos:station:SCCF:13:1,2013-01-09T15:00:00Z,26.5255,-82.0032,1.0,-9999.0,1111122 
SCCF RECON,ioos:station:SCCF:13:1,2013-01-09T16:00:00Z,26.5255,-82.0032,1.0,-9999.0,1111122 
SCCF RECON,ioos:station:SCCF:13:1,2013-01-09T17:00:00Z,26.5255,-82.0032,1.0,-9999.0,1111122 
SCCF RECON,ioos:station:SCCF:13:1,2013-01-09T18:00:00Z,26.5255,-82.0032,1.0,-9999.0,1111122 
SCCF RECON,ioos:station:SCCF:13:1,2013-01-09T19:00:00Z,26.5255,-82.0032,1.0,-9999.0,1111122 
SCCF RECON,ioos:station:SCCF:13:1,2013-01-09T20:00:00Z,26.5255,-82.0032,1.0,-9999.0,1111122 
SCCF RECON,ioos:station:SCCF:13:1,2013-01-09T21:00:00Z,26.5255,-82.0032,1.0,-9999.0,1111122 
SCCF RECON,ioos:station:SCCF:13:1,2013-01-09T22:00:00Z,26.5255,-82.0032,1.0,-9999.0,1111122 
SCCF RECON,ioos:station:SCCF:13:1,2013-01-09T23:00:00Z,26.5255,-82.0032,1.0,-9999.0,1111122 
SCCF RECON,ioos:station:SCCF:13:1,2013-01-10T00:00:00Z,26.5255,-82.0032,1.0,-9999.0,1111122 
SCCF RECON,ioos:station:SCCF:13:1,2013-01-10T01:00:00Z,26.5255,-82.0032,1.0,-9999.0,1111122 
SCCF RECON,ioos:station:SCCF:13:1,2013-01-10T02:00:00Z,26.5255,-82.0032,1.0,-9999.0,1111122 
SCCF RECON,ioos:station:SCCF:13:1,2013-01-10T03:00:00Z,26.5255,-82.0032,1.0,-9999.0,1111122 
SCCF RECON,ioos:station:SCCF:13:1,2013-01-10T04:00:00Z,26.5255,-82.0032,1.0,-9999.0,1111122 
SCCF RECON,ioos:station:SCCF:13:1,2013-01-10T05:00:00Z,26.5255,-82.0032,1.0,-9999.0,1111122 
SCCF RECON,ioos:station:SCCF:13:1,2013-01-10T06:00:00Z,26.5255,-82.0032,1.0,-9999.0,1111122 
SCCF RECON,ioos:station:SCCF:13:1,2013-01-10T07:00:00Z,26.5255,-82.0032,1.0,-9999.0,1111122 
SCCF RECON,ioos:station:SCCF:13:1,2013-01-10T08:00:00Z,26.5255,-82.0032,1.0,-9999.0,1111122 
SCCF RECON,ioos:station:SCCF:13:1,2013-01-10T09:00:00Z,26.5255,-82.0032,1.0,-9999.0,1111122 
SCCF RECON,ioos:station:SCCF:13:1,2013-01-10T10:00:00Z,26.5255,-82.0032,1.0,-9999.0,1111122 
SCCF RECON,ioos:station:SCCF:13:1,2013-01-10T11:00:00Z,26.5255,-82.0032,1.0,-9999.0,1111122 
SCCF RECON,ioos:station:SCCF:13:1,2013-01-10T12:00:00Z,26.5255,-82.0032,2.468,6.52,1111122 
SCCF RECON,ioos:station:SCCF:13:1,2013-01-10T13:00:00Z,26.5255,-82.0032,2.499,6.69,1111122 
SCCF RECON,ioos:station:SCCF:13:1,2013-01-10T14:00:00Z,26.5255,-82.0032,2.493,7.01,1111122 
SCCF RECON,ioos:station:SCCF:13:1,2013-01-10T15:00:00Z,26.5255,-82.0032,2.49,7.13,1111122 
SCCF RECON,ioos:station:SCCF:13:1,2013-01-10T16:00:00Z,26.5255,-82.0032,2.48,7.18,1111122 
SCCF RECON,ioos:station:SCCF:13:1,2013-01-10T17:00:00Z,26.5255,-82.0032,2.43,6.93,1111122 
SCCF RECON,ioos:station:SCCF:13:1,2013-01-10T18:00:00Z,26.5255,-82.0032,2.37,6.96,1111122 
SCCF RECON,ioos:station:SCCF:13:1,2013-01-10T19:00:00Z,26.5255,-82.0032,2.4,6.72,1111122 
SCCF RECON,ioos:station:SCCF:13:1,2013-01-10T20:00:00Z,26.5255,-82.0032,2.54,6.32,1111122 
SCCF RECON,ioos:station:SCCF:13:1,2013-01-10T21:00:00Z,26.5255,-82.0032,2.67,6.83,1111122 
SCCF RECON,ioos:station:SCCF:13:1,2013-01-10T22:00:00Z,26.5255,-82.0032,2.74,6.96,1111122 
SCCF RECON,ioos:station:SCCF:13:1,2013-01-10T23:00:00Z,26.5255,-82.0032,2.8,6.97,1111122 
SCCF RECON,ioos:station:SCCF:13:1,2013-01-11T00:00:00Z,26.5255,-82.0032,2.84,6.94,1111122 
SCCF RECON,ioos:station:SCCF:13:1,2013-01-11T01:00:00Z,26.5255,-82.0032,2.791,6.83,1111122 
SCCF RECON,ioos:station:SCCF:13:1,2013-01-11T02:00:00Z,26.5255,-82.0032,2.644,6.73,1111122 
SCCF RECON,ioos:station:SCCF:13:1,2013-01-11T03:00:00Z,26.5255,-82.0032,2.51,6.57,1111122 
SCCF RECON,ioos:station:SCCF:13:1,2013-01-11T04:00:00Z,26.5255,-82.0032,2.4,6.48,1111122 
SCCF RECON,ioos:station:SCCF:13:1,2013-01-11T05:00:00Z,26.5255,-82.0032,2.3,6.49,1111122 
SCCF RECON,ioos:station:SCCF:13:1,2013-01-11T06:00:00Z,26.5255,-82.0032,2.2,6.47,1111122 
SCCF RECON,ioos:station:SCCF:13:1,2013-01-11T07:00:00Z,26.5255,-82.0032,2.11,6.44,1111122 
SCCF RECON,ioos:station:SCCF:13:1,2013-01-11T08:00:00Z,26.5255,-82.0032,2.067,6.43,1111122 
SCCF RECON,ioos:station:SCCF:13:1,2013-01-11T09:00:00Z,26.5255,-82.0032,2.15,6.49,1111122 
SCCF RECON,ioos:station:SCCF:13:1,2013-01-11T10:00:00Z,26.5255,-82.0032,2.281,6.58,1111122 
SCCF RECON,ioos:station:SCCF:13:1,2013-01-11T11:00:00Z,26.5255,-82.0032,2.37,6.45,1111122 
SCCF RECON,ioos:station:SCCF:13:1,2013-01-11T12:00:00Z,26.5255,-82.0032,2.429,6.26,1111122 
SCCF RECON,ioos:station:SCCF:13:1,2013-01-11T13:00:00Z,26.5255,-82.0032,2.47,6.53,1111122 
SCCF RECON,ioos:station:SCCF:13:1,2013-01-11T14:00:00Z,26.5255,-82.0032,2.481,6.7,1111122 
SCCF RECON,ioos:station:SCCF:13:1,2013-01-11T15:00:00Z,26.5255,-82.0032,2.46,6.99,1111122 
SCCF RECON,ioos:station:SCCF:13:1,2013-01-11T16:00:00Z,26.5255,-82.0032,2.429,7.23,1111122 
SCCF RECON,ioos:station:SCCF:13:1,2013-01-11T17:00:00Z,26.5255,-82.0032,2.39,6.91,1111122 
SCCF RECON,ioos:station:SCCF:13:1,2013-01-11T18:00:00Z,26.5255,-82.0032,2.331,6.76,1111122 
SCCF RECON,ioos:station:SCCF:13:1,2013-01-11T19:00:00Z,26.5255,-82.0032,2.301,6.62,1111122 